﻿測定場所 (Monitoring sites),日付 (Measurement date),時間 (Measurement time),線量率 最大値 (max) μGy/h,線量率 最小値 (min) μGy/h,線量率 平均値 (average) μGy/h,
江東 (Koto),2013-01-06,23:01～24:00,0.0443,0.0405,0.0424,
江東 (Koto),2013-01-06,22:01～23:00,0.0456,0.0394,0.0424,
江東 (Koto),2013-01-06,21:01～22:00,0.0444,0.0404,0.0423,
江東 (Koto),2013-01-06,20:01～21:00,0.0451,0.0402,0.0426,
江東 (Koto),2013-01-06,19:01～20:00,0.0460,0.0391,0.0424,
江東 (Koto),2013-01-06,18:01～19:00,0.0453,0.0400,0.0423,
江東 (Koto),2013-01-06,17:01～18:00,0.0453,0.0396,0.0421,
江東 (Koto),2013-01-06,16:01～17:00,0.0454,0.0401,0.0423,
江東 (Koto),2013-01-06,15:01～16:00,0.0449,0.0388,0.0426,
江東 (Koto),2013-01-06,14:01～15:00,0.0466,0.0392,0.0428,
江東 (Koto),2013-01-06,13:01～14:00,0.0449,0.0403,0.0424,
江東 (Koto),2013-01-06,12:01～13:00,0.0451,0.0405,0.0426,
江東 (Koto),2013-01-06,11:01～12:00,0.0460,0.0401,0.0428,
江東 (Koto),2013-01-06,10:01～11:00,0.0455,0.0406,0.0430,
江東 (Koto),2013-01-06,09:01～10:00,0.0456,0.0405,0.0428,
江東 (Koto),2013-01-06,08:01～09:00,0.0455,0.0403,0.0430,
江東 (Koto),2013-01-06,07:01～08:00,0.0464,0.0398,0.0430,
江東 (Koto),2013-01-06,06:01～07:00,0.0452,0.0406,0.0432,
江東 (Koto),2013-01-06,05:01～06:00,0.0455,0.0404,0.0426,
江東 (Koto),2013-01-06,04:01～05:00,0.0451,0.0396,0.0424,
江東 (Koto),2013-01-06,03:01～04:00,0.0449,0.0402,0.0424,
江東 (Koto),2013-01-06,02:01～03:00,0.0446,0.0401,0.0425,
江東 (Koto),2013-01-06,01:01～02:00,0.0452,0.0406,0.0426,
江東 (Koto),2013-01-06,00:01～01:00,0.0467,0.0384,0.0424,
江東 (Koto),2013-01-05,23:01～24:00,0.0455,0.0394,0.0425,
江東 (Koto),2013-01-05,22:01～23:00,0.0453,0.0401,0.0422,
江東 (Koto),2013-01-05,21:01～22:00,0.0450,0.0394,0.0425,
江東 (Koto),2013-01-05,20:01～21:00,0.0455,0.0400,0.0425,
江東 (Koto),2013-01-05,19:01～20:00,0.0464,0.0403,0.0427,
江東 (Koto),2013-01-05,18:01～19:00,0.0452,0.0400,0.0423,
江東 (Koto),2013-01-05,17:01～18:00,0.0448,0.0393,0.0424,
江東 (Koto),2013-01-05,16:01～17:00,0.0447,0.0407,0.0424,
江東 (Koto),2013-01-05,15:01～16:00,0.0444,0.0405,0.0424,
江東 (Koto),2013-01-05,14:01～15:00,0.0446,0.0399,0.0425,
江東 (Koto),2013-01-05,13:01～14:00,0.0444,0.0402,0.0420,
江東 (Koto),2013-01-05,12:01～13:00,0.0445,0.0399,0.0423,
江東 (Koto),2013-01-05,11:01～12:00,0.0452,0.0398,0.0425,
江東 (Koto),2013-01-05,10:01～11:00,0.0451,0.0405,0.0426,
江東 (Koto),2013-01-05,09:01～10:00,0.0451,0.0408,0.0425,
江東 (Koto),2013-01-05,08:01～09:00,0.0440,0.0400,0.0423,
江東 (Koto),2013-01-05,07:01～08:00,0.0456,0.0402,0.0426,
江東 (Koto),2013-01-05,06:01～07:00,0.0452,0.0404,0.0427,
江東 (Koto),2013-01-05,05:01～06:00,0.0453,0.0396,0.0422,
江東 (Koto),2013-01-05,04:01～05:00,0.0446,0.0384,0.0424,
江東 (Koto),2013-01-05,03:01～04:00,0.0450,0.0394,0.0421,
江東 (Koto),2013-01-05,02:01～03:00,0.0450,0.0397,0.0424,
江東 (Koto),2013-01-05,01:01～02:00,0.0445,0.0405,0.0421,
江東 (Koto),2013-01-05,00:01～01:00,0.0446,0.0392,0.0422,
江東 (Koto),2013-01-04,23:01～24:00,0.0447,0.0398,0.0422,
江東 (Koto),2013-01-04,22:01～23:00,0.0452,0.0403,0.0425,
江東 (Koto),2013-01-04,21:01～22:00,0.0450,0.0399,0.0425,
江東 (Koto),2013-01-04,20:01～21:00,0.0456,0.0389,0.0423,
江東 (Koto),2013-01-04,19:01～20:00,0.0451,0.0394,0.0424,
江東 (Koto),2013-01-04,18:01～19:00,0.0452,0.0389,0.0422,
江東 (Koto),2013-01-04,17:01～18:00,0.0458,0.0387,0.0421,
江東 (Koto),2013-01-04,16:01～17:00,0.0451,0.0392,0.0422,
江東 (Koto),2013-01-04,15:01～16:00,0.0452,0.0400,0.0424,
江東 (Koto),2013-01-04,14:01～15:00,0.0457,0.0395,0.0423,
江東 (Koto),2013-01-04,13:01～14:00,0.0447,0.0393,0.0425,
江東 (Koto),2013-01-04,12:01～13:00,0.0452,0.0401,0.0424,
江東 (Koto),2013-01-04,11:01～12:00,0.0446,0.0400,0.0424,
江東 (Koto),2013-01-04,10:01～11:00,0.0462,0.0405,0.0425,
江東 (Koto),2013-01-04,09:01～10:00,0.0450,0.0402,0.0425,
江東 (Koto),2013-01-04,08:01～09:00,0.0450,0.0402,0.0424,
江東 (Koto),2013-01-04,07:01～08:00,0.0447,0.0397,0.0424,
江東 (Koto),2013-01-04,06:01～07:00,0.0453,0.0396,0.0426,
江東 (Koto),2013-01-04,05:01～06:00,0.0451,0.0404,0.0425,
江東 (Koto),2013-01-04,04:01～05:00,0.0449,0.0398,0.0429,
江東 (Koto),2013-01-04,03:01～04:00,0.0475,0.0403,0.0426,
江東 (Koto),2013-01-04,02:01～03:00,0.0445,0.0405,0.0425,
江東 (Koto),2013-01-04,01:01～02:00,0.0459,0.0394,0.0424,
江東 (Koto),2013-01-04,00:01～01:00,0.0456,0.0398,0.0426,
江東 (Koto),2013-01-03,23:01～24:00,0.0449,0.0400,0.0424,
江東 (Koto),2013-01-03,22:01～23:00,0.0446,0.0401,0.0426,
江東 (Koto),2013-01-03,21:01～22:00,0.0455,0.0404,0.0427,
江東 (Koto),2013-01-03,20:01～21:00,0.0456,0.0403,0.0426,
江東 (Koto),2013-01-03,19:01～20:00,0.0451,0.0399,0.0422,
江東 (Koto),2013-01-03,18:01～19:00,0.0456,0.0397,0.0423,
江東 (Koto),2013-01-03,17:01～18:00,0.0449,0.0399,0.0427,
江東 (Koto),2013-01-03,16:01～17:00,0.0451,0.0389,0.0425,
江東 (Koto),2013-01-03,15:01～16:00,0.0461,0.0404,0.0426,
江東 (Koto),2013-01-03,14:01～15:00,0.0453,0.0409,0.0426,
江東 (Koto),2013-01-03,13:01～14:00,0.0449,0.0401,0.0426,
江東 (Koto),2013-01-03,12:01～13:00,0.0459,0.0397,0.0429,
江東 (Koto),2013-01-03,11:01～12:00,0.0445,0.0399,0.0424,
江東 (Koto),2013-01-03,10:01～11:00,0.0444,0.0401,0.0424,
江東 (Koto),2013-01-03,09:01～10:00,0.0450,0.0394,0.0424,
江東 (Koto),2013-01-03,08:01～09:00,0.0449,0.0396,0.0421,
江東 (Koto),2013-01-03,07:01～08:00,0.0447,0.0404,0.0424,
江東 (Koto),2013-01-03,06:01～07:00,0.0463,0.0397,0.0426,
江東 (Koto),2013-01-03,05:01～06:00,0.0461,0.0401,0.0426,
江東 (Koto),2013-01-03,04:01～05:00,0.0453,0.0404,0.0427,
江東 (Koto),2013-01-03,03:01～04:00,0.0452,0.0390,0.0425,
江東 (Koto),2013-01-03,02:01～03:00,0.0453,0.0396,0.0423,
江東 (Koto),2013-01-03,01:01～02:00,0.0445,0.0400,0.0426,
江東 (Koto),2013-01-03,00:01～01:00,0.0465,0.0395,0.0427,
江東 (Koto),2013-01-02,23:01～24:00,0.0444,0.0400,0.0424,
江東 (Koto),2013-01-02,22:01～23:00,0.0454,0.0406,0.0428,
江東 (Koto),2013-01-02,21:01～22:00,0.0460,0.0400,0.0425,
江東 (Koto),2013-01-02,20:01～21:00,0.0464,0.0404,0.0425,
江東 (Koto),2013-01-02,19:01～20:00,0.0453,0.0409,0.0425,
江東 (Koto),2013-01-02,18:01～19:00,0.0449,0.0404,0.0426,
江東 (Koto),2013-01-02,17:01～18:00,0.0449,0.0396,0.0423,
江東 (Koto),2013-01-02,16:01～17:00,0.0460,0.0398,0.0428,
江東 (Koto),2013-01-02,15:01～16:00,0.0455,0.0399,0.0426,
江東 (Koto),2013-01-02,14:01～15:00,0.0448,0.0400,0.0427,
江東 (Koto),2013-01-02,13:01～14:00,0.0456,0.0402,0.0426,
江東 (Koto),2013-01-02,12:01～13:00,0.0453,0.0394,0.0424,
江東 (Koto),2013-01-02,11:01～12:00,0.0446,0.0398,0.0423,
江東 (Koto),2013-01-02,10:01～11:00,0.0444,0.0399,0.0424,
江東 (Koto),2013-01-02,09:01～10:00,0.0451,0.0407,0.0424,
江東 (Koto),2013-01-02,08:01～09:00,0.0441,0.0395,0.0421,
江東 (Koto),2013-01-02,07:01～08:00,0.0445,0.0395,0.0423,
江東 (Koto),2013-01-02,06:01～07:00,0.0452,0.0395,0.0423,
江東 (Koto),2013-01-02,05:01～06:00,0.0449,0.0400,0.0425,
江東 (Koto),2013-01-02,04:01～05:00,0.0446,0.0400,0.0425,
江東 (Koto),2013-01-02,03:01～04:00,0.0446,0.0397,0.0421,
江東 (Koto),2013-01-02,02:01～03:00,0.0449,0.0399,0.0421,
江東 (Koto),2013-01-02,01:01～02:00,0.0462,0.0398,0.0425,
江東 (Koto),2013-01-02,00:01～01:00,0.0461,0.0395,0.0425,
江東 (Koto),2013-01-01,23:01～24:00,0.0447,0.0391,0.0424,
江東 (Koto),2013-01-01,22:01～23:00,0.0455,0.0395,0.0422,
江東 (Koto),2013-01-01,21:01～22:00,0.0452,0.0401,0.0423,
江東 (Koto),2013-01-01,20:01～21:00,0.0464,0.0399,0.0421,
江東 (Koto),2013-01-01,19:01～20:00,0.0442,0.0391,0.0418,
江東 (Koto),2013-01-01,18:01～19:00,0.0447,0.0403,0.0424,
江東 (Koto),2013-01-01,17:01～18:00,0.0446,0.0392,0.0425,
江東 (Koto),2013-01-01,16:01～17:00,0.0454,0.0398,0.0420,
江東 (Koto),2013-01-01,15:01～16:00,0.0451,0.0399,0.0424,
江東 (Koto),2013-01-01,14:01～15:00,0.0448,0.0399,0.0421,
江東 (Koto),2013-01-01,13:01～14:00,0.0448,0.0395,0.0421,
江東 (Koto),2013-01-01,12:01～13:00,0.0451,0.0404,0.0422,
江東 (Koto),2013-01-01,11:01～12:00,0.0452,0.0394,0.0422,
江東 (Koto),2013-01-01,10:01～11:00,0.0451,0.0398,0.0424,
江東 (Koto),2013-01-01,09:01～10:00,0.0441,0.0394,0.0422,
江東 (Koto),2013-01-01,08:01～09:00,0.0455,0.0397,0.0426,
江東 (Koto),2013-01-01,07:01～08:00,0.0457,0.0398,0.0425,
江東 (Koto),2013-01-01,06:01～07:00,0.0449,0.0403,0.0423,
江東 (Koto),2013-01-01,05:01～06:00,0.0439,0.0394,0.0420,
江東 (Koto),2013-01-01,04:01～05:00,0.0445,0.0401,0.0423,
江東 (Koto),2013-01-01,03:01～04:00,0.0449,0.0398,0.0421,
江東 (Koto),2013-01-01,02:01～03:00,0.0453,0.0399,0.0423,
江東 (Koto),2013-01-01,01:01～02:00,0.0446,0.0395,0.0421,
江東 (Koto),2013-01-01,00:01～01:00,0.0450,0.0400,0.0422,
江東 (Koto),2012-12-31,23:01～24:00,0.0447,0.0396,0.0420,
江東 (Koto),2012-12-31,22:01～23:00,0.0451,0.0406,0.0423,
江東 (Koto),2012-12-31,21:01～22:00,0.0451,0.0396,0.0421,
江東 (Koto),2012-12-31,20:01～21:00,0.0444,0.0398,0.0420,
江東 (Koto),2012-12-31,19:01～20:00,0.0451,0.0390,0.0420,
江東 (Koto),2012-12-31,18:01～19:00,0.0455,0.0402,0.0424,
江東 (Koto),2012-12-31,17:01～18:00,0.0447,0.0400,0.0425,
江東 (Koto),2012-12-31,16:01～17:00,0.0460,0.0404,0.0429,
江東 (Koto),2012-12-31,15:01～16:00,0.0450,0.0400,0.0429,
江東 (Koto),2012-12-31,14:01～15:00,0.0457,0.0408,0.0430,
江東 (Koto),2012-12-31,13:01～14:00,0.0459,0.0397,0.0426,
江東 (Koto),2012-12-31,12:01～13:00,0.0456,0.0407,0.0427,
江東 (Koto),2012-12-31,11:01～12:00,0.0462,0.0408,0.0432,
江東 (Koto),2012-12-31,10:01～11:00,0.0461,0.0406,0.0432,
江東 (Koto),2012-12-31,09:01～10:00,0.0456,0.0404,0.0429,
江東 (Koto),2012-12-31,08:01～09:00,0.0462,0.0408,0.0432,
江東 (Koto),2012-12-31,07:01～08:00,0.0458,0.0406,0.0430,
江東 (Koto),2012-12-31,06:01～07:00,0.0458,0.0413,0.0433,
江東 (Koto),2012-12-31,05:01～06:00,0.0460,0.0407,0.0429,
江東 (Koto),2012-12-31,04:01～05:00,0.0452,0.0400,0.0428,
江東 (Koto),2012-12-31,03:01～04:00,0.0452,0.0403,0.0426,
江東 (Koto),2012-12-31,02:01～03:00,0.0448,0.0400,0.0425,
江東 (Koto),2012-12-31,01:01～02:00,0.0448,0.0392,0.0425,
江東 (Koto),2012-12-31,00:01～01:00,0.0450,0.0405,0.0422,
